Flight Track Log - Related Links

Times and Time Zones

All times are in EDT time to prevent confusion due to time zone crossing. See the SWA554 flight status page for this flight to view local times or setup timezone preferences in your user account.


Time Position Orientation Groundspeed Altitude Reporting Facility
EDT Latitude Longitude Course Direction KTS MPH feet Rate Location/Type
Fri 09:18:32 AM 36.0753 -115.1550 269° West 116 133 3,500  Level Los Angeles Center
Fri 09:18:56 AM 36.0747 -115.1819 269° West 155 178 4,300 2,372 Climbing Los Angeles Center
Fri 09:19:58 AM 36.0697 -115.2433 264° West 203 234 6,900 3,268 Climbing Los Angeles Center
Fri 09:20:59 AM 35.9981 -115.2808 203° Southwest 277 319 11,000 4,550 Climbing Los Angeles Center
Fri 09:21:58 AM 35.9508 -115.1775 119° Southeast 347 399 16,000 4,082 Climbing Los Angeles Center
Fri 09:23:01 AM 35.9356 -115.0617 99° East 360 414 19,300 3,290 Climbing Los Angeles Center
Fri 09:24:02 AM 35.9111 -114.9278 103° East 391 450 22,800 3,443 Climbing Los Angeles Center
Fri 09:25:03 AM 35.8836 -114.7578 101° East 415 478 26,300 3,049 Climbing Los Angeles Center
Fri 09:26:04 AM 35.8594 -114.6219 102° East 412 474 29,000 1,328 Climbing Los Angeles Center
Fri 09:27:05 AM 35.8047 -114.5025 119° Southeast 403 464 29,000  Level Los Angeles Center
Fri 09:28:06 AM 35.7444 -114.3869 123° Southeast 402 463 29,000  Level Los Angeles Center
Fri 09:29:07 AM 35.6833 -114.2717 123° Southeast 402 463 29,000  Level Los Angeles Center
Fri 09:30:08 AM 35.6203 -114.1503 123° Southeast 401 461 29,000  Level Los Angeles Center
Fri 09:31:09 AM 35.5589 -114.0350 123° Southeast 404 465 29,000  Level Los Angeles Center
Fri 09:32:10 AM 35.5089 -113.9453 124° Southeast 401 461 29,000  Level Los Angeles Center
Fri 09:33:11 AM 35.4350 -113.8086 124° Southeast 402 463 29,000  Level Los Angeles Center
Fri 09:34:13 AM 35.3742 -113.6964 124° Southeast 398 458 29,000  Level Los Angeles Center
Fri 09:35:14 AM 35.3125 -113.5831 124° Southeast 401 461 29,000  Level Los Angeles Center
Fri 09:36:15 AM 35.2506 -113.4694 124° Southeast 404 465 29,000  Level Los Angeles Center
Fri 09:37:16 AM 35.1886 -113.3567 124° Southeast 404 465 29,000  Level Los Angeles Center
Fri 09:38:20 AM 35.1158 -113.2219 123° Southeast 403 464 29,000  Level Albuquerque Center
Fri 09:39:21 AM 35.0550 -113.1114 124° Southeast 399 459 29,000  Level Albuquerque Center
Fri 09:40:22 AM 34.9925 -112.9997 124° Southeast 403 464 29,000  Level Albuquerque Center
Fri 09:41:23 AM 34.9306 -112.8875 124° Southeast 404 465 29,000  Level Albuquerque Center
Fri 09:42:24 AM 34.8678 -112.7756 124° Southeast 403 464 29,000  Level Albuquerque Center
Fri 09:43:25 AM 34.7928 -112.6422 124° Southeast 402 463 29,000 -927 Level Albuquerque Center
Fri 09:44:27 AM 34.7306 -112.5314 124° Southeast 400 460 27,100 -1,463 Descending Albuquerque Center
Fri 09:45:28 AM 34.6586 -112.4325 131° Southeast 393 452 26,000 -1,721 Descending Albuquerque Center
Fri 09:46:29 AM 34.5742 -112.3572 144° Southeast 378 435 23,600 -2,508 Descending Albuquerque Center
Fri 09:47:30 AM 34.4878 -112.2714 141° Southeast 380 437 20,900 -1,756 Descending Albuquerque Center
Fri 09:48:32 AM 34.3975 -112.2183 154° Southeast 367 422 20,000 -732 Descending Albuquerque Center
Fri 09:49:33 AM 34.3028 -112.1933 168° South 351 404 19,400 -1,230 Descending Albuquerque Center
Fri 09:50:34 AM 34.2125 -112.1697 168° South 339 390 17,500 -1,918 Descending Albuquerque Center
Fri 09:51:35 AM 34.1256 -112.1467 168° South 325 374 15,500 -1,574 Descending Albuquerque Center
Fri 09:52:36 AM 34.0411 -112.1400 176° South 304 350 14,300 -1,415 Descending Albuquerque Center
Fri 09:53:38 AM 33.9619 -112.1494 186° South 289 333 12,600 -1,805 Descending Albuquerque Center
Fri 09:54:39 AM 33.8717 -112.1631 187° South 274 315 10,600 -1,574 Descending Albuquerque Center
Fri 09:55:40 AM 33.8003 -112.1789 190° South 264 304 9,400 -1,220 Descending Albuquerque Center
Fri 09:56:42 AM 33.7319 -112.1931 190° South 252 290 8,100 -976 Descending Albuquerque Center
Fri 09:57:43 AM 33.6689 -112.2058 190° South 235 270 7,400 -878 Descending Albuquerque Center
Fri 09:58:45 AM 33.6108 -112.2181 190° South 216 249 6,300 -780 Descending Albuquerque Center
Fri 09:59:46 AM 33.5508 -112.2306 190° South 218 251 5,800 -885 Descending Albuquerque Center
Fri 10:00:47 AM 33.4892 -112.2258 176° South 229 264 4,500 -1,317 Descending Albuquerque Center
Fri 10:01:49 AM 33.4539 -112.1708 128° Southeast 217 250 3,100 -1,073 Descending Albuquerque Center
Fri 10:02:50 AM 33.4408 -112.0989 102° East 185 213 2,300 -738 Descending Albuquerque Center
Fri 10:03:51 AM 33.4411 -112.0522 90° East 144 166 1,600 -585 Descending Albuquerque Center
Fri 10:04:53 AM 33.4417 -112.0069 89° East 127 146 1,100 -484 Descending Albuquerque Center

Login

Don't have an account? Register now (free) for customized features, flight alerts, and more!